User: anonymous   Login
Location: Unspecified
(0.0000°N, 0.0000°E)
Time: 17:28:12
(UTC+00:00)
Language:

HUMSAT D - Orbit

View from above orbital plane
View from above orbital plane
View from above satellite
View from above satellite

Ground track
Ground track

The orbit data is extracted from the following two-line orbital elements,

1 39433U 13066T   18116.12564406  .00000404  00000-0  45261-4 0  9993
2 39433  97.6088 174.3126 0029480 254.9661 104.8295 14.91818161240669
Epoch (UTC): 26 April 2018 03:00:55
Eccentricity: 0.0029480
inclination: 97.6088°
perigee height: 572 km
apogee height: 613 km
right ascension of ascending node: 174.3126°
argument of perigee: 254.9661°
revolutions per day: 14.91818161
mean anomaly at epoch: 104.8295°
orbit number at epoch: 24066

The dashed part of the orbit path shows where the satellite is in the earth's shadow,  

DLR